Location: Newark
(34.0131°N, 4.3314°W)
Time: 07:44:58
(UTC+00:00)

A-11 Canister half - Pass Details

Date: 29 October 2019
Orbit: 1514 x 1686 km, 47.2° (Epoch: 11 November)

Event Time Altitude Azimuth Distance (km) Brightness Sun altitude
Rises 06:36:03 0° 305° (NW) 4,819 11.0 -0.4°
Reaches altitude 10° 06:39:12 10° 303° (WNW) 3,808 10.5 0.2°
Maximum altitude 06:48:45 70° 222° (SW) 1,632 9.2 2.1°
Drops below altitude 10° 06:57:58 10° 141° (SE) 3,681 12.2 3.9°
Sets 07:00:58 0° 139° (SE) 4,651 12.8 4.5°
